Simultaneous Nadir Overpasses (SNOs) Predictions

Prediction of SNOs between FY3D and NOAA-19 Satellite Orbit:

Table of predicted SNOs for the next 14.0 days since TLE Epoch: 7/6/2024
Index Date (FY3D) Time (FY3D) Lat,Lon (FY3D) SZA (FY3D ) Date (NOAA-19) Time (NOAA-19) Lat,Lon (NOAA-19) SZA (NOAA-19 ) Distance(km) Time Diff (sec)
1 07/18/2024 23:21:33 75.92,-170.28 55.05 07/18/2024 23:20:20 75.90,-171.16 55.04 23.99 73
2 07/19/2024 00:12:20 -76.03, -3.34 124.84 07/19/2024 00:11:12 -76.02, -3.46 124.84 3.54 68
3 07/19/2024 01:03:07 76.07, 163.81 55.22 07/19/2024 01:02:14 76.07, 163.97 55.22 4.32 53
4 07/19/2024 01:53:51 -76.04, -28.77 124.81 07/19/2024 01:53:09 -76.05, -28.81 124.79 1.82 42
5 07/19/2024 02:44:37 76.04, 138.53 55.21 07/19/2024 02:44:12 76.06, 138.45 55.23 2.98 25
6 07/19/2024 03:35:22 -76.06, -54.20 124.78 07/19/2024 03:35:07 -76.05, -54.33 124.79 3.46 15
7 07/19/2024 04:26:08 76.06, 113.10 55.24 07/19/2024 04:26:10 76.06, 112.94 55.23 4.22 2
8 07/19/2024 05:16:53 -76.07, -79.64 124.75 07/19/2024 05:17:04 -76.09, -79.68 124.74 1.70 11
9 07/19/2024 06:07:39 76.08, 87.67 55.27 07/19/2024 06:08:07 76.09, 87.59 55.28 2.85 28
10 07/19/2024 06:58:24 -76.09,-105.07 124.72 07/19/2024 06:59:02 -76.08,-105.19 124.73 3.36 38
11 07/19/2024 07:49:10 76.09, 62.23 55.30 07/19/2024 07:50:05 76.09, 62.08 55.29 4.06 55
12 07/19/2024 08:39:54 -76.11,-130.50 124.69 07/19/2024 08:40:58 -76.12,-130.54 124.68 1.57 64
13 07/19/2024 09:30:46 76.38, 35.81 55.61 07/19/2024 09:31:56 76.35, 37.56 55.56 46.09 70



Historial Predications of SNOs between FY3D and NOAA-19
